Weather History for Ft Pierce, FL

Change the Weather History Date:

Thursday, May 2, 2013

  Actual Average Record
Temperature  
Mean Temperature 72 °F -  
Max Temperature 75 °F 83 °F 95 °F (2002)
Min Temperature 69 °F 64 °F 52 °F (1992)
Cooling Degree Days 7    
Growing Degree Days 22 (Base 50)    
Moisture  
Dew Point 68 °F    
Average Humidity 88    
Maximum Humidity 96    
Minimum Humidity 78    
Precipitation  
Precipitation 2.11 in - - ()
Sea Level Pressure  
Sea Level Pressure 29.91 in    
Wind  
Wind Speed 7 mph (East)    
Max Wind Speed 18 mph    
Max Gust Speed 31 mph    
Visibility 6 miles    
Events Rain , Thunderstorm    
Averages and records for this station are not official NWS values.
T = Trace of Precipitation, MM = Missing Value Source: NWS Daily Summary

Daily Weather History Graph

Daily Weather History Graph

Search for Another Location

Airport:

Trip Planner

Search our weather history database for the weather conditions in past years. The results will help you decide how hot, cold, wet, or windy it might be!

Date:

Astronomy

May. 02, 2013 Rise Set
Actual Time 6:41 AM EDT 7:55 PM EDT
Civil Twilight 6:16 AM EDT 8:20 PM EDT
Nautical Twilight 5:47 AM EDT 8:50 PM EDT
Astronomical Twilight 5:16 AM EDT 9:20 PM EDT
Moon 1:48 AM EDT (5/2) 1:20 PM EDT (5/2)
Length of Visible Light 14h 04m
Length of Day
13h 14m
Waning Gibbous, 48% of the Moon is Illuminated
May 2
Waning Gibbous
May 9
New
May 18
First Quarter
May 25
Full
May 31
Last Quarter

Hourly Weather History & Observations

Time (EDT) Temp. Dew Point Humidity Pressure Visibility Wind Dir Wind Speed Gust Speed Precip Events Conditions
12:53 AM 73.0 °F 69.1 °F 87% 29.96 in 5.0 mi Calm Calm - 0.01 in Rain Light Rain
1:08 AM 71.6 °F 69.8 °F 94% 29.95 in 2.5 mi WNW 4.6 mph - 0.06 in Rain Heavy Rain
1:11 AM 71.6 °F 69.8 °F 94% 29.95 in 3.0 mi WNW 6.9 mph - 0.06 in Rain Light Rain
1:22 AM 71.6 °F 69.8 °F 94% 29.95 in 2.5 mi WNW 9.2 mph - 0.15 in Rain Rain
1:26 AM 71.6 °F 69.8 °F 94% 29.95 in 3.0 mi Variable 5.8 mph - 0.17 in Rain Rain
1:42 AM 71.6 °F 68.0 °F 88% 29.94 in 4.0 mi Calm Calm - 0.22 in Rain Heavy Rain
1:53 AM 70.0 °F 66.9 °F 90% 29.93 in 4.0 mi NNE 9.2 mph - 0.25 in Rain Rain
1:56 AM 69.8 °F 66.2 °F 88% 29.93 in 4.0 mi NE 10.4 mph 17.3 mph 0.01 in Rain Light Rain
2:53 AM 73.0 °F 66.9 °F 81% 29.91 in 10.0 mi ESE 12.7 mph - 0.01 in   Overcast
3:53 AM 73.0 °F 66.9 °F 81% 29.91 in 10.0 mi ESE 15.0 mph - N/A   Mostly Cloudy
4:27 AM 71.6 °F 68.0 °F 88% 29.90 in 10.0 mi ESE 15.0 mph 24.2 mph N/A   Mostly Cloudy
4:46 AM 73.4 °F 68.0 °F 83% 29.89 in 10.0 mi ESE 13.8 mph - N/A Thunderstorm Mostly Cloudy
4:53 AM 73.0 °F 68.0 °F 84% 29.90 in 10.0 mi East 10.4 mph - N/A Thunderstorm Mostly Cloudy
5:19 AM 75.2 °F 68.0 °F 78% 29.90 in 10.0 mi SE 12.7 mph - N/A   Overcast
5:53 AM 75.0 °F 69.1 °F 82% 29.89 in 10.0 mi NNW 10.4 mph 20.7 mph N/A   Overcast
5:59 AM 71.6 °F 66.2 °F 83% 29.91 in 5.0 mi NW 16.1 mph 24.2 mph 0.03 in Rain Light Rain
6:01 AM 69.8 °F 66.2 °F 88% 29.91 in 1.8 mi NNW 18.4 mph 24.2 mph 0.17 in Rain , Thunderstorm Thunderstorms and Rain
6:08 AM 69.8 °F 66.2 °F 88% 29.92 in 0.8 mi NNW 13.8 mph 31.1 mph 0.54 in Rain , Thunderstorm Heavy Thunderstorms and Rain
6:19 AM 69.8 °F 66.2 °F 88% 29.92 in 2.5 mi Variable 4.6 mph - 0.65 in Rain , Thunderstorm Light Thunderstorms and Rain
6:25 AM 69.8 °F 66.2 °F 88% 29.91 in 10.0 mi WNW 8.1 mph - 0.65 in Thunderstorm Thunderstorm
6:40 AM 69.8 °F 66.2 °F 88% 29.92 in 10.0 mi NW 4.6 mph - 0.65 in Thunderstorm Thunderstorm
6:53 AM 70.0 °F 66.9 °F 90% 29.91 in 10.0 mi NE 3.5 mph - 0.65 in Thunderstorm Thunderstorm
7:01 AM 69.8 °F 66.2 °F 88% 29.92 in 6.0 mi West 3.5 mph - 0.02 in Rain , Thunderstorm Rain
7:22 AM 69.8 °F 66.2 °F 88% 29.93 in 10.0 mi East 3.5 mph - 0.02 in Rain , Thunderstorm Light Thunderstorms and Rain
7:33 AM 69.8 °F 66.2 °F 88% 29.93 in 5.0 mi North 6.9 mph - 0.04 in Rain , Thunderstorm Light Thunderstorms and Rain
7:42 AM 69.8 °F 66.2 °F 88% 29.93 in 4.0 mi NNE 3.5 mph - 0.06 in Rain , Thunderstorm Light Thunderstorms and Rain
7:47 AM 69.8 °F 66.2 °F 88% 29.94 in 2.5 mi North 5.8 mph - 0.10 in Rain , Thunderstorm Heavy Thunderstorms and Rain
7:53 AM 69.1 °F 66.9 °F 93% 29.94 in 1.0 mi Calm Calm - 0.18 in Rain , Thunderstorm Heavy Thunderstorms and Rain
8:10 AM 69.8 °F 68.0 °F 94% 29.94 in 0.8 mi NE 4.6 mph - 0.25 in Rain , Thunderstorm Heavy Thunderstorms and Rain
8:24 AM 69.8 °F 68.0 °F 94% 29.94 in 1.0 mi ENE 4.6 mph - 0.47 in Rain Heavy Rain
8:41 AM 69.8 °F 68.0 °F 94% 29.94 in 1.2 mi ENE 8.1 mph - 0.62 in Rain , Thunderstorm Heavy Rain
8:53 AM 69.1 °F 68.0 °F 96% 29.95 in 2.5 mi East 3.5 mph - 0.63 in Rain , Thunderstorm Light Rain
9:07 AM 69.8 °F 66.2 °F 88% 29.95 in 2.5 mi ENE 8.1 mph - 0.21 in Rain Heavy Rain
9:15 AM 69.8 °F 66.2 °F 88% 29.95 in 3.0 mi ENE 4.6 mph - 0.22 in Rain , Thunderstorm Light Rain
9:45 AM 69.8 °F 68.0 °F 94% 29.95 in 3.0 mi NNE 4.6 mph - 0.24 in Rain Rain
9:53 AM 70.0 °F 68.0 °F 93% 29.94 in 4.0 mi NE 4.6 mph - 0.25 in Rain Light Rain
10:00 AM 69.8 °F 68.0 °F 94% 29.94 in 5.0 mi ENE 3.5 mph - 0.00 in Rain Light Rain
10:53 AM 73.9 °F 70.0 °F 87% 29.94 in 5.0 mi ESE 11.5 mph - 0.00 in   Overcast
11:33 AM 71.6 °F 66.2 °F 83% 29.93 in 10.0 mi ESE 10.4 mph - N/A Thunderstorm Partly Cloudy
11:48 AM 71.6 °F 68.0 °F 88% 29.93 in 9.0 mi South 5.8 mph - N/A   Partly Cloudy
11:53 AM 71.1 °F 66.9 °F 87% 29.93 in 8.0 mi South 4.6 mph - 0.00 in Rain Light Rain
12:53 PM 71.1 °F 68.0 °F 90% 29.93 in 6.0 mi South 4.6 mph - 0.05 in Rain Light Rain
1:53 PM 72.0 °F 69.1 °F 91% 29.90 in 10.0 mi SSE 8.1 mph - 0.02 in   Mostly Cloudy
2:53 PM 73.0 °F 69.1 °F 87% 29.89 in 9.0 mi SE 10.4 mph - 0.03 in Rain Light Rain
3:53 PM 72.0 °F 69.1 °F 91% 29.89 in 9.0 mi South 6.9 mph - 0.01 in Rain Light Rain
4:53 PM 73.9 °F 69.1 °F 85% 29.88 in 9.0 mi SSE 9.2 mph - 0.00 in   Mostly Cloudy
4:58 PM 73.4 °F 69.8 °F 88% 29.87 in 9.0 mi SSE 11.5 mph - 0.00 in Rain Light Rain
5:36 PM 73.4 °F 69.8 °F 88% 29.86 in 9.0 mi SSE 13.8 mph - 0.00 in   Mostly Cloudy
5:43 PM 73.4 °F 68.0 °F 83% 29.85 in 10.0 mi SSE 12.7 mph - 0.00 in   Scattered Clouds
5:53 PM 73.0 °F 68.0 °F 84% 29.85 in 10.0 mi SSE 10.4 mph - 0.00 in   Partly Cloudy
6:53 PM 73.0 °F 66.9 °F 81% 29.83 in 9.0 mi SSE 10.4 mph 18.4 mph 0.00 in Rain Light Rain
7:53 PM 73.0 °F 66.9 °F 81% 29.84 in 10.0 mi SE 9.2 mph - 0.00 in Rain Light Rain
8:53 PM 72.0 °F 66.0 °F 81% 29.86 in 10.0 mi SSE 8.1 mph - 0.01 in Rain Light Rain
9:53 PM 72.0 °F 66.9 °F 84% 29.86 in 10.0 mi ESE 10.4 mph - 0.00 in Rain Light Rain
10:53 PM 73.0 °F 68.0 °F 84% 29.85 in 10.0 mi ESE 15.0 mph - 0.01 in   Overcast
11:53 PM 73.0 °F 66.9 °F 81% 29.85 in 10.0 mi SE 11.5 mph - N/A   Scattered Clouds